[[{"header":{"parameterUnit":"m.s-1","parameterCategory":1,"la1":30.2991,"la2":30.254,"lo1":-89.0895,"lo2":-89.0444,"dy":0.0017,"dx":0.0017,"nx":28,"ny":28,"refTime":"2025-12-21T09:00:00:Z","depth":0,"parameterNumber":2,"parameterNumberName":"U-component_of_WINDS"},"data":[0,0,0,0,0,0,0,0,0,0,0,0,0,0,0,0,0,0,0,0,0,0,0,0,0,0,0,0,0,0,0,0,0,0,0,0,0,0,0,0,0,0,0,0,0,0,0,0,0,0,0,0,0,0,0,0,0,0,-5.6735,-5.6736,0,-5.6873,-5.6875,-5.6876,-5.6787,-5.6783,-5.6779,-5.6775,-5.6921,-5.6928,-5.6936,0,0,0,0,0,0,0,0,0,0,0,0,0,-5.6399,-5.6406,-5.6735,-5.6737,-5.6738,-5.6873,-5.6875,-5.6877,-5.6788,-5.6783,-5.6778,-5.6773,-5.6918,-5.6927,-5.6936,0,0,0,0,0,0,0,0,0,0,0,0,0,-5.6542,-5.6408,-5.6735,-5.671,-5.6709,-5.6873,-5.6875,-5.6877,-5.6789,-5.6783,-5.6777,-5.6771,-5.6915,-5.6926,-5.6938,-5.7134,0,0,-5.6973,-5.6978,0,0,0,0,0,0,0,0,-5.6534,-5.6555,-5.6712,-5.6712,-5.6712,-5.6807,-5.681,-5.6963,-5.6791,-5.6759,-5.6775,-5.6768,-5.6888,-5.6901,-5.6941,-5.7141,-5.7147,-5.6974,-5.6981,-5.6986,-5.699,0,0,0,0,0,0,0,-5.6524,-5.6548,-5.679,-5.6714,-5.6714,-5.6694,-5.6708,-5.6838,-5.6857,-5.6761,-5.6755,-5.6773,-5.6887,-5.693,-5.6944,-5.7149,-5.6974,-5.6984,-5.6991,-5.6996,-5.7519,-5.7526,0,0,0,0,0,0,-5.6516,-5.654,-5.6785,-5.6794,-5.6606,-5.6705,-5.672,-5.6783,-5.6855,-5.686,-5.6778,-5.6768,-5.6913,-5.693,-5.6949,-5.7184,-5.6986,-5.6997,-5.7004,-5.7512,-5.7521,-5.7528,0,0,0,0,0,0,-5.6509,-5.6538,-5.678,-5.6666,-5.6695,-5.6718,-5.6788,-5.6789,-5.6832,-5.6867,-5.6871,-5.6818,-5.6909,-5.6932,-5.7089,-5.7188,-5.7002,-5.7013,-5.7504,-5.7515,-5.7524,-5.7656,0,0,0,0,0,0,-5.65,-5.6536,-5.661,-5.6668,-5.6701,-5.6916,-5.6794,-5.6796,-5.6852,-5.684,-5.6907,-5.6912,-5.6906,-5.7072,-5.71,-5.72,-5.7022,-5.7495,-5.7509,-5.7521,-5.7643,-5.7669,-5.7692,0,0,0,0,0,-5.6488,-5.6641,-5.6614,-5.6644,-5.6793,-5.6922,-5.6941,-5.693,-5.686,-5.6935,-5.6958,-5.6909,-5.7173,-5.7089,-5.712,-5.7225,-5.7489,-5.7505,-5.752,-5.7632,-5.7664,-5.7692,0,0,0,0,0,0,-5.6594,-5.6648,-5.6618,-5.6795,-5.6855,-5.6907,-5.7,-5.6965,-5.7047,-5.7033,-5.7017,-5.7033,-5.7197,-5.7227,-5.7132,-5.742,-5.732,-5.7343,-5.7394,-5.7425,-5.745,-5.7439,-5.7031,0,0,0,0,0,-5.6639,-5.6737,-5.678,-5.6932,-5.6963,-5.6977,-5.7033,-5.702,-5.7081,-5.7106,-5.7141,-5.7204,-5.7301,-5.7365,-5.7456,-5.7647,-5.7661,-5.7735,-5.776,-5.778,-5.78,-5.7905,-5.7939,-5.7579,-5.7579,-5.7579,0,0,-5.673,-5.6772,-5.6835,-5.6954,-5.6999,-5.7103,-5.6999,-5.7113,-5.7191,-5.7124,-5.7273,-5.7302,-5.7371,-5.7547,-5.7625,-5.7576,-5.7903,-5.78,-5.7816,-5.7825,-5.7925,-5.7959,-5.7989,-5.759,-5.7588,-5.7586,0,0,-5.6951,-5.6992,-5.7124,-5.7171,-5.724,-5.7249,-5.7281,-5.734,-5.7355,-5.7505,-5.7458,-5.7552,-5.7718,-5.777,-5.7819,-5.8063,-5.8022,-5.8094,-5.8223,-5.8326,-5.8354,-5.8379,-5.8467,-5.8499,-5.8113,-5.8114,-5.8114,0,-5.7057,-5.721,-5.7196,-5.7315,-5.737,-5.7314,-5.7449,-5.7496,-5.7592,-5.7631,-5.7575,-5.7785,-5.7828,-5.8015,-5.8075,-5.8116,-5.8153,-5.8085,-5.8351,-5.8376,-5.8399,-5.8483,-5.8516,-5.8122,-5.8121,-5.812,-5.8119,0,-5.7338,-5.7446,-5.7544,-5.7638,-5.7704,-5.783,-5.7837,-5.7906,-5.7888,-5.7904,-5.8059,-5.8109,-5.821,-5.8254,-5.8238,-5.8441,-5.8408,-5.8352,-5.8251,-5.8442,-5.8521,-5.8553,-5.8134,-5.8131,-5.8128,-5.8126,0,0,-5.7626,-5.7713,-5.7749,-5.7792,-5.7866,-5.795,-5.8075,-5.8173,-5.8233,-5.8303,-5.8408,-5.8553,-5.8502,-5.8557,-5.8547,-5.8637,-5.883,-5.8571,-5.8572,-5.8617,-5.9058,-5.9099,-5.9137,-5.8804,-5.881,-5.8815,-5.9052,0,-5.7851,-5.8068,-5.806,-5.8263,-5.8364,-5.8315,-5.8424,-5.8483,-5.8502,-5.8592,-5.8613,-5.8716,-5.8641,-5.8674,-5.8761,-5.8788,-5.8918,-5.8771,-5.8903,-5.8908,-5.8886,-5.9177,-5.9221,-5.9443,-5.9083,-5.9088,-5.9092,0,-5.8142,-5.8221,-5.8434,-5.8495,-5.8537,-5.8635,-5.8726,-5.8812,-5.8879,-5.8887,-5.895,-5.8926,-5.9056,-5.8952,-5.9131,-5.9031,-5.9086,-5.9108,-5.9116,-5.9127,-5.9011,-5.9197,-5.9513,-5.9546,-5.914,-5.9136,-5.9133,0,-5.8331,-5.8491,-5.864,-5.8678,-5.8753,-5.8824,-5.8859,-5.8919,-5.8979,-5.906,-5.91,-5.9195,-5.9247,-5.9322,-5.9326,-5.925,-5.9507,-5.9404,-5.9518,-5.9519,-5.9574,-5.957,-5.9903,-5.961,-5.9609,-5.9609,-5.9608,0,-5.8583,-5.8715,-5.8726,-5.8817,-5.8965,-5.8957,-5.9104,-5.9133,-5.9188,-5.9285,-5.9249,-5.9342,-5.9341,-5.9437,-5.9441,-5.9589,-5.9613,-5.9624,-5.9624,-5.9627,-5.9626,-5.9662,-5.9646,-5.9618,-5.9616,-5.9614,-5.9612,0,-5.8818,-5.8831,-5.899,-5.9049,-5.9067,-5.9173,-5.9225,-5.9313,-5.933,-5.9454,-5.9483,-5.951,-5.962,-5.9632,-5.9761,-5.9763,-5.9943,-5.9926,-5.992,-5.9917,-6.0031,-6.0021,-6.0398,-6.0448,-6.0123,-6.0127,-6.0129,0,-5.8977,-5.9078,-5.9148,-5.9211,-5.925,-5.9351,-5.9413,-5.941,-5.9477,-5.9562,-5.9641,-5.9748,-5.9833,-6.0013,-6.0045,-6.0144,-6.0129,-6.0255,-6.0143,-6.0145,-6.0131,-6.0125,-6.0135,-6.0276,-6.0279,-6.0282,-6.0285,0,-5.9258,-5.926,-5.935,-5.9444,-5.9519,-5.9593,-5.9662,-5.9716,-5.9723,-5.98,-5.9912,-5.9978,-6.0111,-6.0218,-6.0316,-6.0354,-6.0322,-6.032,-6.0352,-6.0356,-6.0348,-6.0354,-5.9979,-6.0311,-6.0308,-6.0306,-6.0305,-6.0304,-5.946,-5.9548,-5.9612,-5.9715,-5.9767,-5.9833,-5.9919,-5.9948,-6.0041,-6.0148,-6.0142,-6.0267,-6.0334,-6.0462,-6.0508,-6.0607,-6.0565,-6.0611,-6.0622,-6.0634,-6.0645,-6.0334,-6.0625,-6.0624,-6.0623,-6.0623,-6.0622,0,-5.9739,-5.9778,-5.9873,-5.9971,-6.0053,-6.0016,-6.0092,-6.0163,-6.0272,-6.0338,-6.0423,-6.0554,-6.0659,-6.0701,-6.0804,-6.0875,-6.0863,-6.0903,-6.0897,-6.0906,-6.0677,-6.0639,-6.0911,-6.0911,-6.0911,-6.091,-6.091,-6.091,-5.9893,-6.0041,-6.0051,-6.0226,-6.0265,-6.0386,-6.0433,-6.0495,-6.0547,-6.0694,-6.0781,-6.0808,-6.0865,-6.0973,-6.1068,-6.1078,-6.1118,-6.1164,-6.1167,-6.0951,-6.0922,-6.0894,-6.0859,-6.1172,-6.1173,-6.1389,-6.1391,-6.1392]},{"header":{"parameterUnit":"m.s-1","parameterCategory":1,"la1":30.2991,"la2":30.254,"lo1":-89.0895,"lo2":-89.0444,"dy":0.0017,"dx":0.0017,"nx":28,"ny":28,"refTime":"2025-12-21T09:00:00:Z","depth":0,"parameterNumber":3,"parameterNumberName":"V-component_of_WINDS"},"data":[0,0,0,0,0,0,0,0,0,0,0,0,0,0,0,0,0,0,0,0,0,0,0,0,0,0,0,0,0,0,0,0,0,0,0,0,0,0,0,0,0,0,0,0,0,0,0,0,0,0,0,0,0,0,0,0,0,0,-0.125,-0.125,0,-0.124,-0.124,-0.124,-0.1214,-0.1213,-0.1213,-0.1212,-0.1203,-0.1203,-0.1204,0,0,0,0,0,0,0,0,0,0,0,0,0,-0.1248,-0.1248,-0.125,-0.125,-0.125,-0.124,-0.124,-0.124,-0.1214,-0.1213,-0.1212,-0.1212,-0.1203,-0.1203,-0.1204,0,0,0,0,0,0,0,0,0,0,0,0,0,-0.1244,-0.1248,-0.125,-0.1236,-0.1234,-0.124,-0.124,-0.124,-0.1214,-0.1213,-0.1212,-0.1211,-0.1203,-0.1203,-0.1204,-0.1223,0,0,-0.1205,-0.1205,0,0,0,0,0,0,0,0,-0.1245,-0.1244,-0.1238,-0.1237,-0.1235,-0.1227,-0.1236,-0.1234,-0.1214,-0.1222,-0.1212,-0.1211,-0.1212,-0.1212,-0.1211,-0.1222,-0.1222,-0.1205,-0.1205,-0.1205,-0.1206,0,0,0,0,0,0,0,-0.1245,-0.1245,-0.1246,-0.1238,-0.1236,-0.123,-0.1228,-0.1235,-0.1222,-0.1221,-0.1219,-0.1218,-0.1211,-0.1211,-0.1211,-0.1222,-0.1205,-0.1205,-0.1206,-0.1206,-0.1246,-0.1247,0,0,0,0,0,0,-0.1247,-0.1245,-0.1247,-0.1246,-0.1238,-0.1231,-0.1229,-0.1231,-0.1222,-0.1219,-0.1219,-0.1217,-0.1211,-0.1211,-0.1211,-0.1231,-0.1205,-0.1206,-0.1206,-0.1245,-0.1246,-0.1247,0,0,0,0,0,0,-0.1247,-0.1247,-0.1247,-0.1245,-0.1244,-0.1232,-0.1234,-0.1231,-0.1231,-0.122,-0.1217,-0.1221,-0.121,-0.121,-0.1219,-0.1231,-0.1206,-0.1206,-0.1244,-0.1246,-0.1247,-0.1274,0,0,0,0,0,0,-0.1247,-0.1248,-0.1255,-0.1245,-0.1245,-0.1256,-0.1234,-0.1231,-0.1232,-0.1229,-0.1222,-0.122,-0.1209,-0.1219,-0.122,-0.1231,-0.1207,-0.1243,-0.1245,-0.1246,-0.1272,-0.1276,-0.1279,0,0,0,0,0,-0.1247,-0.1264,-0.1255,-0.1256,-0.1253,-0.1257,-0.1256,-0.1244,-0.1233,-0.124,-0.1232,-0.122,-0.1229,-0.122,-0.1221,-0.1232,-0.1243,-0.1245,-0.1246,-0.127,-0.1275,-0.1279,0,0,0,0,0,0,-0.1276,-0.1262,-0.1253,-0.1267,-0.1263,-0.1252,-0.1261,-0.125,-0.125,-0.1247,-0.1232,-0.1231,-0.1242,-0.1238,-0.1228,-0.1249,-0.1234,-0.1236,-0.1252,-0.1256,-0.126,-0.126,-0.1207,0,0,0,0,0,-0.1284,-0.1288,-0.1275,-0.1289,-0.1287,-0.1274,-0.1275,-0.1266,-0.1262,-0.126,-0.1253,-0.125,-0.1252,-0.1254,-0.1255,-0.1271,-0.1268,-0.1279,-0.1282,-0.1285,-0.1287,-0.1294,-0.1298,-0.1253,-0.1253,-0.1253,0,0,-0.1301,-0.1293,-0.1297,-0.1294,-0.129,-0.1294,-0.1273,-0.1279,-0.1281,-0.1261,-0.1269,-0.1264,-0.1259,-0.1271,-0.1276,-0.1268,-0.1299,-0.1288,-0.129,-0.1291,-0.1296,-0.13,-0.1304,-0.1255,-0.1254,-0.1254,0,0,-0.1333,-0.1328,-0.1338,-0.1333,-0.1327,-0.1318,-0.132,-0.1311,-0.1306,-0.1314,-0.1298,-0.1301,-0.1305,-0.1302,-0.1301,-0.1329,-0.1318,-0.133,-0.1349,-0.1356,-0.1359,-0.1362,-0.1372,-0.1375,-0.1332,-0.1332,-0.1332,0,-0.1354,-0.1359,-0.1344,-0.135,-0.1349,-0.1329,-0.1339,-0.1336,-0.1331,-0.133,-0.1321,-0.1324,-0.132,-0.133,-0.1337,-0.1337,-0.1339,-0.1331,-0.136,-0.1363,-0.1365,-0.1374,-0.1378,-0.1334,-0.1334,-0.1333,-0.1333,0,-0.1386,-0.1389,-0.1398,-0.1392,-0.1392,-0.14,-0.1385,-0.1387,-0.1377,-0.1369,-0.1376,-0.1369,-0.1368,-0.137,-0.1361,-0.1379,-0.1374,-0.1363,-0.1347,-0.1371,-0.1379,-0.1383,-0.1336,-0.1335,-0.1335,-0.1334,0,0,-0.1437,-0.1421,-0.1424,-0.1421,-0.1411,-0.1414,-0.142,-0.1418,-0.1419,-0.1416,-0.142,-0.1423,-0.1412,-0.141,-0.14,-0.1406,-0.1428,-0.1394,-0.1394,-0.14,-0.1446,-0.1454,-0.1458,-0.142,-0.142,-0.1421,-0.1446,0,-0.1467,-0.1476,-0.1462,-0.1475,-0.1477,-0.1457,-0.1463,-0.1457,-0.1449,-0.145,-0.1442,-0.1443,-0.1429,-0.1428,-0.1433,-0.1424,-0.1437,-0.1422,-0.1424,-0.1424,-0.1425,-0.1462,-0.1472,-0.1496,-0.1449,-0.1449,-0.145,0,-0.1503,-0.1499,-0.1512,-0.15,-0.15,-0.1505,-0.1501,-0.1503,-0.1496,-0.1489,-0.1487,-0.1474,-0.1479,-0.1463,-0.147,-0.146,-0.1459,-0.1455,-0.1456,-0.1456,-0.1438,-0.1463,-0.1503,-0.1507,-0.1455,-0.1454,-0.1454,0,-0.1538,-0.1537,-0.1544,-0.1541,-0.1528,-0.1531,-0.1526,-0.1518,-0.1517,-0.1513,-0.1512,-0.151,-0.1509,-0.1507,-0.1494,-0.1484,-0.1501,-0.1485,-0.1496,-0.1496,-0.1501,-0.1501,-0.1541,-0.1501,-0.1501,-0.1501,-0.1501,0,-0.1573,-0.1581,-0.1559,-0.1564,-0.1572,-0.1555,-0.1564,-0.1556,-0.1549,-0.1551,-0.1534,-0.1537,-0.1519,-0.152,-0.151,-0.1516,-0.1515,-0.151,-0.1507,-0.1512,-0.1512,-0.1511,-0.1509,-0.1502,-0.1502,-0.1501,-0.1501,0,-0.1614,-0.16,-0.1606,-0.1591,-0.1588,-0.1595,-0.1582,-0.1585,-0.1576,-0.1579,-0.1578,-0.1563,-0.1563,-0.1549,-0.1546,-0.1539,-0.1549,-0.1544,-0.1552,-0.155,-0.1561,-0.156,-0.1603,-0.1607,-0.1564,-0.1565,-0.1565,0,-0.1637,-0.1642,-0.1628,-0.1628,-0.1623,-0.1623,-0.1621,-0.1604,-0.1603,-0.1594,-0.1599,-0.1596,-0.1594,-0.1594,-0.1583,-0.158,-0.1574,-0.1589,-0.1573,-0.1577,-0.1573,-0.1573,-0.1573,-0.1592,-0.1593,-0.1593,-0.1594,0,-0.1679,-0.1671,-0.1669,-0.1664,-0.1662,-0.1657,-0.1652,-0.1653,-0.1634,-0.1634,-0.1632,-0.163,-0.1626,-0.1624,-0.1619,-0.1613,-0.16,-0.1598,-0.1601,-0.1605,-0.1609,-0.1606,-0.156,-0.1598,-0.1597,-0.1597,-0.1597,-0.1597,-0.1711,-0.1714,-0.1704,-0.1702,-0.1696,-0.169,-0.1692,-0.1682,-0.168,-0.1675,-0.1665,-0.1665,-0.1656,-0.1647,-0.1642,-0.1642,-0.1634,-0.1638,-0.1639,-0.164,-0.1642,-0.1609,-0.1641,-0.1641,-0.1641,-0.1641,-0.1641,0,-0.1751,-0.1743,-0.1741,-0.1733,-0.1731,-0.1718,-0.1711,-0.171,-0.171,-0.1702,-0.1699,-0.1697,-0.1694,-0.1682,-0.1678,-0.168,-0.1674,-0.1679,-0.1679,-0.1677,-0.1649,-0.1647,-0.1684,-0.1684,-0.1684,-0.1684,-0.1684,-0.1684,-0.1772,-0.1777,-0.1767,-0.1768,-0.176,-0.1759,-0.1756,-0.175,-0.1744,-0.1742,-0.1739,-0.1731,-0.1721,-0.1716,-0.1712,-0.1709,-0.1708,-0.1715,-0.171,-0.1684,-0.168,-0.1676,-0.1674,-0.1715,-0.1715,-0.1738,-0.1738,-0.1738]}]]